Date String (YYYY-MM-DD hh:mm:ss) UTC,Instrument flags,Ambient pressure (hPa),Sample flow (lpm),Bypass flow (lpm),Sample temperature (°C),Ambient temperature (°C),ASC tube jacket temperature (°C),LED temperature (°C),Box temperature (°C),Sample RH (%),Span deviation,Mass concentration (μg/m³),Mass concentration (μg/m³),Mass concentration (μg/m³)
DateTimeUTC,F1_M11,P_M11,Q1_M11,Q2_M11,T1_M11,T2_M11,T3_M11,T4_M11,T5_M11,U1_M11,ZSPAN_M11,X2_M11,X0_M11,X1_M11
2022-06-02 12:00:00,,0828.3,5.01,0.00,25.3,24.1,00.0,34.2,27.2,21.3,0000.0,0003.36,0005.24,0003.09
2022-06-02 12:01:00,,0828.3,4.98,0.00,25.3,24.1,00.0,34.2,27.2,21.3,0000.0,0003.36,0005.11,0003.07
2022-06-02 12:02:00,,0828.3,5.02,0.00,25.3,24.1,00.0,34.2,27.2,21.3,0000.0,0003.37,0005.20,0003.06
2022-06-02 12:03:00,,0828.3,5.01,0.00,25.3,24.1,00.0,34.2,27.2,21.4,0000.0,0003.38,0005.24,0003.08
2022-06-02 12:04:00,,0828.5,4.99,0.00,25.3,24.1,00.0,34.2,27.2,21.4,0000.0,0003.43,0005.39,0003.12
2022-06-02 12:05:00,,0828.3,5.01,0.00,25.3,24.1,00.0,34.2,27.2,21.5,0000.0,0003.44,0005.36,0003.14
2022-06-02 12:06:00,,0828.4,5.00,0.00,25.3,24.1,00.0,34.2,27.2,21.5,0000.0,0003.43,0005.35,0003.14
2022-06-02 12:07:00,,0828.4,4.99,0.00,25.3,24.1,00.0,34.2,27.2,21.4,0000.0,0003.42,0006.13,0003.15
2022-06-02 12:08:00,,0828.4,4.99,0.00,25.3,24.1,00.0,34.2,27.2,21.3,0000.0,0003.44,0006.36,0003.15
2022-06-02 12:09:00,,0828.4,5.00,0.00,25.3,24.1,00.0,34.2,27.2,21.2,0000.0,0003.44,0006.29,0003.14
2022-06-02 12:10:00,,0828.4,5.00,0.00,25.3,24.1,00.0,34.2,27.2,21.2,0000.0,0003.45,0006.27,0003.14
2022-06-02 12:11:00,,0828.4,5.01,0.00,25.3,24.1,00.0,34.2,27.2,21.2,0000.0,0003.43,0006.18,0003.13
2022-06-02 12:12:00,,0828.4,5.00,0.00,25.3,24.1,00.0,34.2,27.2,21.4,0000.0,0003.41,0006.16,0003.13
2022-06-02 12:13:00,,0828.4,5.00,0.00,25.3,24.1,00.0,34.2,27.2,21.5,0000.0,0003.41,0006.11,0003.13
2022-06-02 12:14:00,,0828.4,5.00,0.00,25.3,24.1,00.0,34.2,27.2,21.5,0000.0,0003.44,0006.23,0003.13
2022-06-02 12:15:00,,0828.4,5.00,0.00,25.3,24.1,00.0,34.2,27.2,21.4,0000.0,0003.43,0006.11,0003.13
2022-06-02 12:16:00,,0828.4,4.99,0.00,25.2,24.1,00.0,34.2,27.2,21.3,0000.0,0003.44,0006.15,0003.12
2022-06-02 12:17:00,,0828.4,5.00,0.00,25.2,24.1,00.0,34.2,27.2,21.3,0000.0,0003.43,0006.17,0003.11
2022-06-02 12:18:00,,0828.4,4.99,0.00,25.2,24.1,00.0,34.2,27.1,21.4,0000.0,0003.43,0005.67,0003.10
2022-06-02 12:19:00,,0828.4,5.00,0.00,25.2,24.1,00.0,34.2,27.2,21.4,0000.0,0003.45,0005.26,0003.11
2022-06-02 12:20:00,,0828.4,5.01,0.00,25.2,24.1,00.0,34.2,27.2,21.3,0000.0,0003.46,0005.39,0003.12
2022-06-02 12:21:00,,0828.4,5.01,0.00,25.2,24.1,00.0,34.2,27.2,21.4,0000.0,0003.47,0005.52,0003.13
2022-06-02 12:22:00,,0828.5,5.00,0.00,25.2,24.1,00.0,34.2,27.2,21.6,0000.0,0003.48,0005.55,0003.13
2022-06-02 12:23:00,,0828.4,5.00,0.00,25.2,24.1,00.0,34.2,27.2,22.0,0000.0,0003.48,0005.40,0003.14
2022-06-02 12:24:00,,0828.5,5.00,0.00,25.2,24.1,00.0,34.2,27.2,22.0,0000.0,0003.48,0005.37,0003.16
2022-06-02 12:25:00,,0828.4,5.00,0.00,25.2,24.1,00.0,34.2,27.2,21.8,0000.0,0003.47,0005.31,0003.17
2022-06-02 12:26:00,,0828.4,4.99,0.00,25.2,24.1,00.0,34.2,27.2,21.7,0000.0,0003.48,0005.42,0003.17
2022-06-02 12:27:00,,0828.5,4.99,0.00,25.2,24.1,00.0,34.2,27.2,21.7,0000.0,0003.50,0005.53,0003.18
2022-06-02 12:28:00,,0828.5,5.01,0.00,25.2,24.1,00.0,34.2,27.2,21.7,0000.0,0003.53,0005.74,0003.19
2022-06-02 12:29:00,,0828.4,5.00,0.00,25.2,24.1,00.0,34.2,27.2,21.8,0000.0,0003.53,0005.68,0003.21
2022-06-02 12:30:00,,0828.5,5.00,0.00,25.2,24.1,00.0,34.2,27.2,21.8,0000.0,0003.52,0005.66,0003.22
2022-06-02 12:31:00,,0828.4,5.00,0.00,25.2,24.1,00.0,34.2,27.2,21.8,0000.0,0003.53,0006.89,0003.23
2022-06-02 12:32:00,,0828.5,5.00,0.00,25.2,24.1,00.0,34.1,27.2,22.0,0000.0,0003.53,0007.37,0003.24
2022-06-02 12:33:00,,0828.4,5.00,0.00,25.2,24.1,00.0,34.2,27.2,22.3,0000.0,0003.54,0007.34,0003.25
2022-06-02 12:34:00,,0828.4,5.00,0.00,25.2,24.1,00.0,34.2,27.2,22.2,0000.0,0003.57,0007.41,0003.26
2022-06-02 12:35:00,,0828.4,4.99,0.00,25.2,24.1,00.0,34.2,27.2,22.4,0000.0,0003.59,0007.48,0003.27
2022-06-02 12:36:00,,0828.5,5.00,0.00,25.2,24.1,00.0,34.2,27.2,22.8,0000.0,0003.61,0007.50,0003.28
2022-06-02 12:37:00,,0828.5,5.00,0.00,25.3,24.2,00.0,34.2,27.2,23.2,0000.0,0003.60,0007.46,0003.29
2022-06-02 12:38:00,,0828.4,5.00,0.00,25.3,24.2,00.0,34.2,27.2,23.6,0000.0,0003.59,0007.87,0003.30
2022-06-02 12:39:00,,0828.4,5.00,0.00,25.3,24.2,00.0,34.2,27.2,24.0,0000.0,0003.58,0007.93,0003.32
2022-06-02 12:40:00,,0828.4,5.01,0.00,25.3,24.2,00.0,34.2,27.2,24.4,0000.0,0003.63,0008.02,0003.34
2022-06-02 12:41:00,,0828.4,4.99,0.00,25.3,24.2,00.0,34.2,27.2,25.2,0000.0,0003.67,0008.03,0003.36
2022-06-02 12:42:00,,0828.5,5.02,0.00,25.3,24.2,00.0,34.2,27.2,25.8,0000.0,0003.70,0007.33,0003.38
2022-06-02 12:43:00,,0828.4,4.99,0.00,25.3,24.2,00.0,34.2,27.3,25.5,0000.0,0003.73,0007.06,0003.40
2022-06-02 12:44:00,,0828.4,5.01,0.00,25.3,24.3,00.0,34.2,27.3,25.8,0000.0,0003.78,0007.20,0003.43
2022-06-02 12:45:00,,0828.4,5.00,0.00,25.3,24.3,00.0,34.2,27.3,25.3,0000.0,0003.79,0007.12,0003.45
2022-06-02 12:46:00,,0828.4,5.01,0.00,25.3,24.3,00.0,34.2,27.3,24.7,0000.0,0003.85,0007.18,0003.50
2022-06-02 12:47:00,,0828.4,5.00,0.00,25.3,24.3,00.0,34.2,27.3,24.9,0000.0,0003.91,0007.36,0003.54
2022-06-02 12:48:00,,0828.5,5.00,0.00,25.3,24.3,00.0,34.2,27.3,24.3,0000.0,0003.97,0007.41,0003.60
2022-06-02 12:49:00,,0828.5,5.00,0.00,25.3,24.3,00.0,34.2,27.3,24.4,0000.0,0004.05,0006.91,0003.67
2022-06-02 12:50:00,,0828.5,5.00,0.00,25.3,24.3,00.0,34.2,27.3,24.8,0000.0,0004.11,0006.55,0003.72
2022-06-02 12:51:00,,0828.5,5.00,0.00,25.3,24.3,00.0,34.2,27.3,24.2,0000.0,0004.16,0006.62,0003.78
2022-06-02 12:52:00,,0828.4,4.99,0.00,25.3,24.3,00.0,34.2,27.3,25.3,0000.0,0004.21,0006.67,0003.84
2022-06-02 12:53:00,,0828.5,5.01,0.00,25.3,24.3,00.0,34.2,27.3,26.1,0000.0,0004.25,0006.64,0003.90
2022-06-02 12:54:00,,0828.4,4.99,0.00,25.3,24.4,00.0,34.2,27.3,26.1,0000.0,0004.31,0006.57,0003.97
2022-06-02 12:55:00,,0828.4,5.01,0.00,25.3,24.4,00.0,34.2,27.3,25.7,0000.0,0004.38,0006.62,0004.06
2022-06-02 12:56:00,,0828.4,4.99,0.00,25.3,24.4,00.0,34.2,27.3,26.1,0000.0,0004.47,0006.79,0004.13
2022-06-02 12:57:00,,0828.4,5.01,0.00,25.4,24.4,00.0,34.2,27.3,26.5,0000.0,0004.53,0006.88,0004.19
2022-06-02 12:58:00,,0828.4,5.00,0.00,25.4,24.4,00.0,34.2,27.3,26.6,0000.0,0004.59,0006.89,0004.27
2022-06-02 12:59:00,,0828.4,5.01,0.00,25.4,24.4,00.0,34.3,27.3,26.6,0000.0,0004.66,0007.03,0004.33
